When you browse on this site, cookies collect data to enhance your experience and personalize the content and advertising you see.
Visit our Privacy Policy to learn more. By continuing to use the site, you agree to this use of cookies and data.
  • In Lithuania
  • List of Countries
  • For 7 days
  • Water Temperature
  • Weather Map
  • Weather Widgets
  • user-avatar
    Login

    Hourly Weather Kolesnye Gorki

    Today, 27 January, Monday

    Time Temperature Precipitation Wind Pressure Humidity
    00:00 0°C° 0.2 mm 5 mps 739 mmHg 91%
    01:00 0°C° 0.2 mm 5 mps 740 mmHg 91%
    02:00 -1°C° 0 mm 4 mps 741 mmHg 89%
    03:00 -1°C° 0.1 mm 3 mps 741 mmHg 90%
    04:00 -2°C° 0.1 mm 3 mps 742 mmHg 91%
    05:00 -3°C° 0.1 mm 2 mps 742 mmHg 92%
    06:00 -4°C° 0 mm 2 mps 742 mmHg 93%
    07:00 -5°C° 0 mm 2 mps 743 mmHg 94%
    08:00 -4°C° 0 mm 1 mps 744 mmHg 95%
    09:00 -3°C° 0 mm 1 mps 744 mmHg 89%
    10:00 -5°C° 0 mm 2 mps 745 mmHg 84%
    11:00 -5°C° 0 mm 2 mps 745 mmHg 78%
    12:00 -5°C° 0 mm 2 mps 745 mmHg 76%
    13:00 -5°C° 0 mm 2 mps 746 mmHg 74%
    14:00 -5°C° 0 mm 2 mps 746 mmHg 72%
    15:00 -5°C° 0 mm 2 mps 746 mmHg 74%
    16:00 -5°C° 0 mm 2 mps 746 mmHg 75%
    17:00 -5°C° 0 mm 2 mps 746 mmHg 77%
    18:00 -6°C° 0.1 mm 3 mps 746 mmHg 79%
    19:00 -7°C° 0.1 mm 3 mps 746 mmHg 81%
    20:00 -8°C° 0.1 mm 4 mps 746 mmHg 83%
    21:00 -8°C° 0.2 mm 4 mps 745 mmHg 86%
    22:00 -8°C° 0.2 mm 4 mps 745 mmHg 88%
    23:00 -8°C° 0.2 mm 4 mps 745 mmHg 91%

    Tomorrow, 28 January, Tuesday

    Time Temperature Precipitation Wind Pressure Humidity
    00:00 -8°C° 0.3 mm 4 mps 744 mmHg 92%
    01:00 -8°C° 0.3 mm 4 mps 744 mmHg 92%
    02:00 -8°C° 0.3 mm 4 mps 744 mmHg 93%
    03:00 -8°C° 0.3 mm 4 mps 743 mmHg 93%
    04:00 -7°C° 0.3 mm 4 mps 743 mmHg 93%
    05:00 -6°C° 0.3 mm 3 mps 743 mmHg 93%
    06:00 -6°C° 0.2 mm 3 mps 742 mmHg 93%
    07:00 -6°C° 0.2 mm 3 mps 742 mmHg 94%
    08:00 -6°C° 0.2 mm 3 mps 742 mmHg 94%
    09:00 -6°C° 0.1 mm 3 mps 742 mmHg 93%
    10:00 -5°C° 0.1 mm 3 mps 742 mmHg 92%
    11:00 -5°C° 0.1 mm 3 mps 742 mmHg 91%
    12:00 -5°C° 0.1 mm 3 mps 742 mmHg 91%
    13:00 -3°C° 0.1 mm 2 mps 742 mmHg 91%
    14:00 -3°C° 0.1 mm 2 mps 742 mmHg 91%
    15:00 -3°C° 0 mm 2 mps 742 mmHg 92%
    16:00 -4°C° 0 mm 2 mps 741 mmHg 94%
    17:00 -4°C° 0 mm 2 mps 741 mmHg 95%
    18:00 -4°C° 0 mm 2 mps 742 mmHg 96%
    19:00 -3°C° 0 mm 2 mps 742 mmHg 96%
    20:00 -3°C° 0 mm 2 mps 742 mmHg 96%
    21:00 -3°C° 0 mm 2 mps 742 mmHg 96%
    22:00 -3°C° 0 mm 2 mps 742 mmHg 96%
    23:00 -3°C° 0 mm 2 mps 741 mmHg 96%

    Day after tomorrow, 29 January, Wednesday

    Time Temperature Precipitation Wind Pressure Humidity
    00:00 -3°C° 0.1 mm 2 mps 741 mmHg 97%
    01:00 -3°C° 0.1 mm 2 mps 741 mmHg 97%
    02:00 -3°C° 0.1 mm 2 mps 741 mmHg 97%
    03:00 -3°C° 0 mm 2 mps 741 mmHg 97%
    04:00 -3°C° 0 mm 2 mps 741 mmHg 97%
    05:00 -3°C° 0 mm 2 mps 740 mmHg 97%
    06:00 -4°C° 0 mm 2 mps 740 mmHg 97%
    07:00 -4°C° 0 mm 2 mps 740 mmHg 97%
    08:00 -5°C° 0 mm 2 mps 741 mmHg 97%
    09:00 -4°C° 0 mm 2 mps 741 mmHg 95%
    10:00 -2°C° 0 mm 2 mps 741 mmHg 94%
    11:00 -1°C° 0 mm 2 mps 741 mmHg 92%
    12:00 -1°C° 0 mm 3 mps 740 mmHg 92%
    13:00 -1°C° 0 mm 3 mps 740 mmHg 92%
    14:00 -1°C° 0 mm 3 mps 740 mmHg 91%
    15:00 -1°C° 0 mm 3 mps 740 mmHg 92%
    16:00 -1°C° 0 mm 3 mps 740 mmHg 93%
    17:00 -1°C° 0 mm 3 mps 740 mmHg 94%
    18:00 -1°C° 0 mm 3 mps 740 mmHg 94%
    19:00 -1°C° 0 mm 3 mps 740 mmHg 94%
    20:00 -1°C° 0 mm 3 mps 739 mmHg 94%
    21:00 -1°C° 0 mm 3 mps 739 mmHg 94%
    22:00 -2°C° 0 mm 4 mps 739 mmHg 94%
    23:00 -2°C° 0 mm 4 mps 738 mmHg 94%

    30 January, Thursday

    Time Temperature Precipitation Wind Pressure Humidity
    00:00 -2°C° 0 mm 4 mps 738 mmHg 95%
    01:00 -1°C° 0 mm 4 mps 738 mmHg 95%
    02:00 -1°C° 0 mm 4 mps 738 mmHg 95%
    03:00 -1°C° 0.1 mm 4 mps 737 mmHg 96%
    04:00 -1°C° 0.1 mm 4 mps 737 mmHg 96%
    05:00 -1°C° 0.1 mm 4 mps 737 mmHg 97%
    06:00 -1°C° 0.1 mm 4 mps 737 mmHg 97%
    07:00 -1°C° 0.1 mm 4 mps 736 mmHg 97%
    08:00 -1°C° 0.1 mm 4 mps 736 mmHg 97%
    09:00 -1°C° 0.1 mm 4 mps 736 mmHg 97%
    10:00 -1°C° 0.1 mm 4 mps 736 mmHg 97%
    11:00 -1°C° 0.1 mm 4 mps 736 mmHg 96%
    12:00 -2°C° 0.1 mm 4 mps 735 mmHg 96%
    13:00 -2°C° 0.1 mm 4 mps 735 mmHg 96%
    14:00 -2°C° 0.1 mm 4 mps 735 mmHg 96%
    15:00 -1°C° 0.2 mm 3 mps 735 mmHg 96%
    16:00 -2°C° 0.2 mm 3 mps 735 mmHg 96%
    17:00 -2°C° 0.2 mm 3 mps 735 mmHg 96%
    18:00 -4°C° 0.1 mm 3 mps 734 mmHg 96%
    19:00 -3°C° 0.1 mm 2 mps 734 mmHg 96%
    20:00 -3°C° 0.1 mm 2 mps 734 mmHg 96%
    21:00 -3°C° 0.1 mm 2 mps 734 mmHg 96%
    22:00 -3°C° 0.1 mm 2 mps 734 mmHg 95%
    23:00 -3°C° 0.1 mm 2 mps 735 mmHg 95%

    31 January, Friday

    Time Temperature Precipitation Wind Pressure Humidity
    00:00 -4°C° 0 mm 2 mps 735 mmHg 96%
    01:00 -2°C° 0 mm 1 mps 735 mmHg 96%
    02:00 -2°C° 0 mm 1 mps 735 mmHg 97%
    03:00 -2°C° 0 mm 1 mps 734 mmHg 97%
    04:00 -2°C° 0 mm 1 mps 734 mmHg 97%
    05:00 -2°C° 0 mm 1 mps 734 mmHg 96%
    06:00 -2°C° 0 mm 1 mps 734 mmHg 96%
    07:00 -2°C° 0 mm 1 mps 735 mmHg 96%
    08:00 -2°C° 0 mm 1 mps 735 mmHg 96%
    09:00 -1°C° 0 mm 1 mps 735 mmHg 94%
    10:00 -1°C° 0 mm 1 mps 735 mmHg 91%
    11:00 -1°C° 0 mm 0 mps 735 mmHg 89%
    12:00 -1°C° 0 mm 0 mps 735 mmHg 87%
    13:00 -1°C° 0 mm 0 mps 735 mmHg 86%
    14:00 -1°C° 0 mm 0 mps 735 mmHg 84%
    15:00 -1°C° 0 mm 0 mps 735 mmHg 86%
    16:00 -2°C° 0 mm 0 mps 736 mmHg 88%
    17:00 -2°C° 0 mm 0 mps 736 mmHg 90%
    18:00 -2°C° 0 mm 0 mps 736 mmHg 90%
    19:00 -1°C° 0 mm 1 mps 736 mmHg 91%
    20:00 -2°C° 0 mm 1 mps 736 mmHg 92%
    21:00 -2°C° 0 mm 1 mps 737 mmHg 92%
    22:00 -2°C° 0 mm 1 mps 737 mmHg 93%
    23:00 -2°C° 0 mm 1 mps 737 mmHg 93%

    1 February, Saturday

    Time Temperature Precipitation Wind Pressure Humidity
    00:00 -2°C° 0 mm 1 mps 738 mmHg 94%
    01:00 -2°C° 0 mm 1 mps 738 mmHg 95%
    02:00 -2°C° 0 mm 1 mps 738 mmHg 96%
    03:00 -2°C° 0 mm 1 mps 738 mmHg 96%
    04:00 -2°C° 0 mm 1 mps 738 mmHg 96%
    05:00 -2°C° 0 mm 1 mps 738 mmHg 97%
    06:00 -2°C° 0 mm 1 mps 738 mmHg 96%
    07:00 -2°C° 0 mm 1 mps 738 mmHg 95%
    08:00 -2°C° 0 mm 1 mps 738 mmHg 94%
    09:00 -3°C° 0 mm 2 mps 738 mmHg 91%
    10:00 -3°C° 0 mm 2 mps 738 mmHg 89%
    11:00 -2°C° 0 mm 3 mps 738 mmHg 87%
    12:00 -2°C° 0 mm 3 mps 738 mmHg 86%
    13:00 -2°C° 0 mm 3 mps 737 mmHg 86%
    14:00 -2°C° 0 mm 3 mps 737 mmHg 85%
    15:00 -2°C° 0 mm 3 mps 737 mmHg 87%
    16:00 -3°C° 0 mm 4 mps 736 mmHg 89%
    17:00 -3°C° 0 mm 4 mps 736 mmHg 90%
    18:00 -3°C° 0.1 mm 4 mps 736 mmHg 92%
    19:00 -3°C° 0.1 mm 4 mps 735 mmHg 93%
    20:00 -3°C° 0.1 mm 4 mps 735 mmHg 94%
    21:00 -3°C° 0.1 mm 4 mps 734 mmHg 95%
    22:00 -3°C° 0.1 mm 4 mps 734 mmHg 96%
    23:00 -3°C° 0.1 mm 4 mps 734 mmHg 97%
    Show more